カタログに戻る

FENGYUN 1C DEB

運用中SSO
NORAD 29844·DEBRIS·🇨🇳 China

打ち上げ May 10, 1999 から Taiyuan Satellite Launch Center

Loading…

次のパス (今後24時間)

TLE

最新Source: Space-Track

元期: Sep 13, 2026, 11:33 UTC

1 29844U 99025EN  26256.48160779  .00000940  00000-0  31101-3 0  9997
2 29844  98.9214 171.1306 0167801  84.4612 277.5683 14.32708454 22751

AllMySatでFENGYUN 1C DEBをリアルタイム追跡

Download on the App Store